Diretta Meteo Cagliari-Elmas, Italiadomenica 18 agosto ore 06:50

Mappa
Sereno 20 °C Sereno 24 Ore: T.min 19 T.max 30
Ponente Nord Km/h 1.8 Punto di rugiada: 20 °C Umidità: 100% Visibilità: 10 Km
Il sole sorge alle: 06:38 Il sole tramonta alle: 20:16
18 Agosto 2019 06:50 tempo osservato: Sereno Sereno 20 100 1015 vento: Nord N 1.8
18 Agosto 2019 06:20 tempo osservato: Poco Nuvoloso Poco Nuvoloso 21 94 1015 vento: Nord N 3.7
18 Agosto 2019 05:50 tempo osservato: Sereno Sereno 20 93 1015 vento: Nord N 1.8
18 Agosto 2019 05:20 tempo osservato: Sereno Sereno 21 88 1015 vento: Nord N 5.5
18 Agosto 2019 04:50 tempo osservato: Sereno Sereno 21 88 1015 vento: Nord N 3.7
18 Agosto 2019 04:20 tempo osservato: Sereno Sereno 21 94 1015 vento: Nord N 3.7
18 Agosto 2019 03:50 tempo osservato: Sereno Sereno 21 94 1016 vento: Nord N 5.5
18 Agosto 2019 03:20 tempo osservato: Sereno Sereno 22 94 1016 vento: Nord N 3.7
18 Agosto 2019 02:20 tempo osservato: Sereno Sereno 22 94 1016 vento: Nord N 1.8
18 Agosto 2019 01:50 tempo osservato: Sereno Sereno 23 88 1016 vento: Nord N 3.7
18 Agosto 2019 01:20 tempo osservato: Sereno Sereno 23 94 1016 vento: Nord N 1.8
18 Agosto 2019 00:50 tempo osservato: Sereno Sereno 23 94 1016 vento: Nord N 3.7
18 Agosto 2019 00:20 tempo osservato: Sereno Sereno 24 88 1016 vento: Nord N 3.7
17 Agosto 2019 23:50 tempo osservato: Sereno Sereno 24 88 1016 vento: Nord N 5.5
17 Agosto 2019 23:20 tempo osservato: Sereno Sereno 24 88 1016 vento: Nord N 5.5
17 Agosto 2019 22:50 tempo osservato: Sereno Sereno 24 88 1016 vento: Nord N 5.5
17 Agosto 2019 22:20 tempo osservato: Sereno Sereno 24 88 1016 vento: Nord N 5.5
17 Agosto 2019 21:20 tempo osservato: Sereno Sereno 24 88 1016 vento: Nord S/SE 9.3
17 Agosto 2019 20:50 tempo osservato: Sereno Sereno 25 83 1016 vento: Nord SE 11.1
17 Agosto 2019 20:20 tempo osservato: Sereno Sereno 25 83 1016 vento: Nord SE 14.8
17 Agosto 2019 19:50 tempo osservato: Sereno Sereno 26 78 1015 vento: Nord S/SE 13
17 Agosto 2019 19:20 tempo osservato: Sereno Sereno 26 78 1015 vento: Nord S/SE 14.8
17 Agosto 2019 18:50 tempo osservato: Sereno Sereno 26 73 1015 vento: Nord S/SE 16.7
17 Agosto 2019 18:20 tempo osservato: Sereno Sereno 27 69 1016 vento: Nord SE 18.5
17 Agosto 2019 17:50 tempo osservato: Sereno Sereno 28 65 1016 vento: Nord SE 18.5
17 Agosto 2019 17:20 tempo osservato: Sereno Sereno 28 65 1016 vento: Nord S/SE 16.7
17 Agosto 2019 16:50 tempo osservato: Sereno Sereno 28 61 1016 vento: Nord S/SE 16.7
17 Agosto 2019 16:20 tempo osservato: Sereno Sereno 28 61 1016 vento: Nord S/SE 20.3
17 Agosto 2019 15:50 tempo osservato: Sereno Sereno 29 62 1016 vento: Nord S/SE 22.2
17 Agosto 2019 15:20 tempo osservato: Sereno Sereno 28 65 1016 vento: Nord S/SE 20.3
17 Agosto 2019 14:50 tempo osservato: Sereno Sereno 29 58 1016 vento: Nord S/SE 18.5
17 Agosto 2019 14:20 tempo osservato: Sereno Sereno 29 54 1016 vento: Nord S/SE 20.3
17 Agosto 2019 13:50 tempo osservato: Sereno Sereno 29 51 1017 vento: Nord S/SE 14.8
17 Agosto 2019 12:20 tempo osservato: Sereno Sereno 30 25 1017 vento: Nord S 9.3
17 Agosto 2019 11:50 tempo osservato: Sereno Sereno 30 27 1017 vento: Nord O/SO 9.3
17 Agosto 2019 11:20 tempo osservato: Sereno Sereno 30 27 1017 vento: Nord N 9.3
17 Agosto 2019 10:50 tempo osservato: Sereno Sereno 28 30 1017 vento: Nord N/NO 13
17 Agosto 2019 10:20 tempo osservato: Sereno Sereno 27 42 1017 vento: Nord N/NO 16.7
17 Agosto 2019 09:20 tempo osservato: Sereno Sereno 22 68 1017 vento: Nord NO 16.7
17 Agosto 2019 08:50 tempo osservato: Sereno Sereno 21 73 1017 vento: Nord NO 11.1
17 Agosto 2019 08:20 tempo osservato: Sereno Sereno 20 77 1017 vento: Nord NO 11.1
17 Agosto 2019 07:50 tempo osservato: Sereno Sereno 19 82 1016 vento: Nord N/NO 11.1